This is the latest recevied weather packets stored in our database for station/object OE9GTV. If no packets are shown the sender has not sent any weather packets the latest 1 day(s).
| Time | Temp. | Humidity | Pressure | Rain* | Wind** | Luminosity | Snow |
|---|---|---|---|---|---|---|---|
| 1836274446 | 15° C | 76% | 1019.6 hPa | 0 mm | 0 m/s | 0 W/m² | - |
| 1836274296 | 14.44° C | 76% | 1019.7 hPa | 0 mm | 0.45 m/s, 222° | 0 W/m² | - |
| 1778040071 | 10.56° C | 80% | 1004.6 hPa | 0 mm | 0 m/s | 0 W/m² | - |
| 1778039471 | 10.56° C | 80% | 1004.9 hPa | 0 mm | 0 m/s | 0 W/m² | - |
| 1778038871 | 10.56° C | 80% | 1005 hPa | 0 mm | 0 m/s | 0 W/m² | - |
| 1778038271 | 11.11° C | 80% | 1005.1 hPa | 0 mm | 0 m/s | 0 W/m² | - |
| 1778037671 | 11.11° C | 80% | 1005.2 hPa | 0 mm | 0 m/s | 0 W/m² | - |
| 1778037071 | 11.11° C | 80% | 1005.2 hPa | 0 mm | 0.45 m/s, 216° | 0 W/m² | - |
| 1778036471 | 11.11° C | 80% | 1005.2 hPa | 0 mm | 0.45 m/s, 216° | 0 W/m² | - |
| 1778035872 | 11.11° C | 80% | 1005.4 hPa | 0 mm | 0.45 m/s, 216° | 0 W/m² | - |
| 1778035271 | 11.11° C | 80% | 1005.6 hPa | 0 mm | 0.89 m/s, 216° | 0 W/m² | - |
| 1778034671 | 11.11° C | 80% | 1005.8 hPa | 0 mm | 0 m/s | 0 W/m² | - |
| 1778034071 | 11.11° C | 80% | 1005.9 hPa | 0 mm | 0 m/s | 0 W/m² | - |
| 1778033471 | 11.11° C | 80% | 1005.8 hPa | 0 mm | 0 m/s | 0 W/m² | - |
| 1778032871 | 11.11° C | 81% | 1005.9 hPa | 0 mm | 0.89 m/s, 216° | 0 W/m² | - |
| 1778032270 | 11.11° C | 81% | 1005.9 hPa | 0 mm | 0.45 m/s, 216° | 0 W/m² | - |
| 1778031671 | 11.11° C | 81% | 1006 hPa | 0 mm | 1.34 m/s, 216° | 0 W/m² | - |
| 1778031070 | 11.11° C | 81% | 1006.2 hPa | 0 mm | 0.89 m/s, 216° | 0 W/m² | - |
| 1778030470 | 11.11° C | 81% | 1006.2 hPa | 0 mm | 0.89 m/s, 216° | 0 W/m² | - |
| 1778029870 | 10.56° C | 80% | 1006.2 hPa | 0 mm | 0.89 m/s, 216° | 0 W/m² | - |
| 1778029270 | 10.56° C | 80% | 1006.4 hPa | 0 mm | 1.34 m/s, 216° | 0 W/m² | - |
| 1778028670 | 10.56° C | 79% | 1006.3 hPa | 0 mm | 1.79 m/s, 216° | 0 W/m² | - |
| 1778028071 | 10.56° C | 79% | 1006.2 hPa | 0 mm | 0.89 m/s, 216° | 0 W/m² | - |
| 1778027470 | 10.56° C | 78% | 1006.5 hPa | 0 mm | 0.45 m/s, 216° | 0 W/m² | - |
| 1778026870 | 10.56° C | 78% | 1006.6 hPa | 0 mm | 0 m/s | 0 W/m² | - |
* Rain latest hour (hover to see other rain measurements)
** Current wind speed in m/s (hover to see current wind gust speed)